| time (UTC) | temp F | wind direction | speed MPH | gust MPH | rain 1hr in | rain 24hr in | rain mn in | humidity % | barometer mb |
| 20260506081504 | 60 | 138 | 0.0 | 2.0 | 0.00 | 0.04 | 0.00 | 79 | 1009.4 |
| 20260506081003 | 60 | 79 | 0.0 | 3.0 | 0.00 | 0.04 | 0.00 | 79 | 1009.5 |
| 20260506080503 | 61 | 65 | 0.0 | 3.0 | 0.00 | 0.04 | 0.00 | 79 | 1009.6 |
| 20260506073504 | 61 | 102 | 0.0 | 2.0 | 0.00 | 0.04 | 0.00 | 79 | 1009.8 |
| 20260506073003 | 62 | 102 | 0.0 | 2.0 | 0.00 | 0.04 | 0.00 | 79 | 1009.8 |
| 20260506072503 | 62 | 108 | 0.0 | 2.0 | 0.00 | 0.04 | 0.00 | 80 | 1009.7 |
| 20260506072003 | 62 | 94 | 0.0 | 2.0 | 0.00 | 0.04 | 0.00 | 80 | 1009.7 |
| 20260506071503 | 62 | 88 | 0.0 | 1.0 | 0.00 | 0.04 | 0.00 | 80 | 1009.8 |
| 20260506071003 | 62 | 81 | 0.0 | 2.0 | 0.00 | 0.04 | 0.00 | 80 | 1009.7 |
| 20260506070503 | 62 | 86 | 0.0 | 2.0 | 0.00 | 0.04 | 0.00 | 80 | 1009.7 |
| 20260506062504 | 64 | 356 | 0.0 | 2.0 | 0.00 | 0.04 | 0.00 | 80 | 1009.5 |
| 20260506062004 | 64 | 326 | 0.0 | 1.0 | 0.00 | 0.04 | 0.00 | 80 | 1009.5 |
| 20260506061503 | 64 | 348 | 0.0 | 3.0 | 0.00 | 0.04 | 0.00 | 80 | 1009.4 |
| 20260506061004 | 64 | 301 | 0.0 | 3.0 | 0.00 | 0.04 | 0.00 | 80 | 1009.5 |
| 20260506060503 | 64 | 243 | 0.0 | 3.0 | 0.00 | 0.04 | 0.00 | 80 | 1009.4 |
| 20260506051004 | 67 | 258 | 0.0 | 2.0 | 0.00 | 0.04 | 0.00 | 79 | 1009.1 |
| 20260506050503 | 67 | 287 | 0.0 | 1.0 | 0.00 | 0.04 | 0.00 | 79 | 1009.2 |
| 20260506045003 | 68 | 90 | 0.0 | 3.0 | 0.00 | 0.04 | 0.04 | 79 | 1009.1 |
| 20260506044501 | 68 | 227 | 0.0 | 3.0 | 0.00 | 0.04 | 0.04 | 79 | 1009.0 |
| 20260506043002 | 69 | 39 | 0.0 | 2.0 | 0.00 | 0.04 | 0.04 | 79 | 1008.7 |
| 20260506042501 | 70 | 42 | 0.0 | 2.0 | 0.00 | 0.04 | 0.04 | 79 | 1008.8 |
| 20260506042001 | 70 | 18 | 0.0 | 3.0 | 0.00 | 0.04 | 0.04 | 79 | 1008.6 |
| 20260506041501 | 70 | 23 | 0.0 | 3.0 | 0.00 | 0.04 | 0.04 | 79 | 1008.5 |
| 20260506040501 | 70 | 22 | 0.0 | 1.0 | 0.00 | 0.04 | 0.04 | 79 | 1008.5 |
| 20260506040001 | 70 | 23 | 0.0 | 2.0 | 0.00 | 0.04 | 0.04 | 79 | 1008.5 |
| 20260506035501 | 71 | 15 | 0.0 | 2.0 | 0.00 | 0.04 | 0.04 | 78 | 1008.5 |
| 20260506035001 | 71 | 28 | 1.0 | 6.0 | 0.00 | 0.04 | 0.04 | 78 | 1008.4 |
| 20260506034501 | 71 | 48 | 0.0 | 6.0 | 0.00 | 0.04 | 0.04 | 78 | 1008.3 |
| 20260506034001 | 72 | 51 | 0.0 | 1.0 | 0.00 | 0.04 | 0.04 | 78 | 1008.2 |
| 20260506033501 | 72 | 47 | 0.0 | 3.0 | 0.00 | 0.04 | 0.04 | 79 | 1008.1 |
| 20260506033001 | 72 | 50 | 0.0 | 3.0 | 0.00 | 0.04 | 0.04 | 79 | 1008.2 |
| 20260506032502 | 72 | 67 | 0.0 | 3.0 | 0.00 | 0.04 | 0.04 | 79 | 1008.0 |
| 20260506032001 | 73 | 44 | 1.0 | 3.0 | 0.00 | 0.04 | 0.04 | 78 | 1008.0 |
| 20260506031501 | 73 | 29 | 1.0 | 3.0 | 0.00 | 0.04 | 0.04 | 78 | 1008.1 |
| 20260506031001 | 74 | 29 | 1.0 | 3.0 | 0.00 | 0.04 | 0.04 | 78 | 1007.9 |
| 20260506030501 | 74 | 61 | 1.0 | 2.0 | 0.00 | 0.04 | 0.04 | 79 | 1007.7 |
| 20260506030002 | 74 | 94 | 0.0 | 2.0 | 0.00 | 0.04 | 0.04 | 79 | 1007.5 |
| 20260506025001 | 73 | 87 | 0.0 | 2.0 | 0.00 | 0.04 | 0.04 | 80 | 1007.2 |
| 20260506024502 | 73 | 100 | 0.0 | 2.0 | 0.00 | 0.04 | 0.04 | 81 | 1007.2 |
| 20260506024001 | 73 | 77 | 0.0 | 1.0 | 0.00 | 0.04 | 0.04 | 81 | 1006.7 |
| 20260506023502 | 73 | 12 | 0.0 | 1.0 | 0.00 | 0.04 | 0.04 | 82 | 1006.5 |
| 20260506023001 | 73 | 12 | 0.0 | 1.0 | 0.00 | 0.04 | 0.04 | 82 | 1006.4 |
| 20260506022502 | 73 | 348 | 0.0 | 1.0 | 0.00 | 0.04 | 0.04 | 84 | 1006.2 |
| 20260506022001 | 73 | 71 | 0.0 | 1.0 | 0.00 | 0.04 | 0.04 | 83 | 1006.1 |
| 20260506021502 | 73 | 129 | 0.0 | 2.0 | 0.00 | 0.04 | 0.04 | 84 | 1006.1 |
| 20260506021001 | 73 | 130 | 0.0 | 2.0 | 0.00 | 0.04 | 0.04 | 83 | 1006.2 |
| 20260506020501 | 73 | 130 | 0.0 | 1.0 | 0.00 | 0.04 | 0.04 | 83 | 1006.2 |
| 20260506015501 | 74 | 131 | 0.0 | 2.0 | 0.00 | 0.04 | 0.04 | 83 | 1006.1 |
| 20260506015001 | 75 | 132 | 0.0 | 3.0 | 0.00 | 0.04 | 0.04 | 85 | 1005.9 |
| 20260506014501 | 76 | 136 | 0.0 | 3.0 | 0.00 | 0.04 | 0.04 | 82 | 1005.5 |
| 20260506014002 | 77 | 208 | 0.0 | 1.0 | 0.00 | 0.04 | 0.04 | 82 | 1005.6 |
| 20260506013502 | 78 | 208 | 0.0 | 1.0 | 0.02 | 0.04 | 0.04 | 86 | 1005.6 |
| 20260506013001 | 79 | 208 | 0.0 | 1.0 | 0.02 | 0.04 | 0.04 | 86 | 1005.8 |
| 20260506012502 | 79 | 208 | 0.0 | 2.0 | 0.03 | 0.04 | 0.04 | 86 | 1005.9 |
| 20260506012002 | 79 | 208 | 0.0 | 2.0 | 0.04 | 0.04 | 0.04 | 85 | 1005.5 |
| 20260506011502 | 79 | 198 | 2.0 | 9.0 | 0.04 | 0.04 | 0.04 | 84 | 1005.1 |
| 20260506011001 | 79 | 195 | 2.0 | 9.0 | 0.04 | 0.04 | 0.04 | 85 | 1005.1 |
| 20260506010502 | 79 | 193 | 1.0 | 6.0 | 0.04 | 0.04 | 0.04 | 85 | 1004.7 |
| 20260506005501 | 79 | 192 | 1.0 | 8.0 | 0.04 | 0.04 | 0.04 | 85 | 1005.0 |
| 20260506005002 | 79 | 226 | 0.0 | 2.0 | 0.04 | 0.04 | 0.04 | 86 | 1005.1 |
| 20260506004501 | 80 | 228 | 0.0 | 2.0 | 0.04 | 0.04 | 0.04 | 85 | 1005.0 |
| 20260506004001 | 80 | 228 | 0.0 | 4.0 | 0.04 | 0.04 | 0.04 | 84 | 1005.1 |
| 20260506003001 | 81 | 255 | 1.0 | 5.0 | 0.02 | 0.02 | 0.02 | 82 | 1005.0 |
| 20260506002502 | 82 | 239 | 2.0 | 5.0 | 0.01 | 0.01 | 0.01 | 80 | 1005.0 |
| 20260506002001 | 82 | 194 | 2.0 | 8.0 | 0.00 | 0.00 | 0.00 | 80 | 1004.8 |
| 20260506001502 | 82 | 185 | 3.0 | 9.0 | 0.00 | 0.00 | 0.00 | 79 | 1004.8 |
| 20260506001002 | 83 | 183 | 3.0 | 9.0 | 0.00 | 0.00 | 0.00 | 79 | 1004.7 |
| 20260506000501 | 83 | 174 | 3.0 | 9.0 | 0.00 | 0.00 | 0.00 | 76 | 1004.2 |
| 20260506000002 | 83 | 169 | 3.0 | 7.0 | 0.00 | 0.00 | 0.00 | 76 | 1004.2 |
| 20260505235501 | 84 | 173 | 4.0 | 11.0 | 0.00 | 0.00 | 0.00 | 76 | 1003.9 |
| 20260505235001 | 84 | 174 | 4.0 | 12.0 | 0.00 | 0.00 | 0.00 | 75 | 1003.8 |
| 20260505234502 | 84 | 186 | 5.0 | 12.0 | 0.00 | 0.00 | 0.00 | 75 | 1004.0 |
| 20260505233002 | 86 | 181 | 5.0 | 12.0 | 0.00 | 0.00 | 0.00 | 73 | 1004.2 |
| 20260505232501 | 86 | 178 | 4.0 | 12.0 | 0.00 | 0.00 | 0.00 | 72 | 1004.0 |
| 20260505231502 | 87 | 185 | 3.0 | 9.0 | 0.00 | 0.00 | 0.00 | 71 | 1004.1 |
| 20260505231001 | 88 | 181 | 4.0 | 9.0 | 0.00 | 0.00 | 0.00 | 70 | 1004.1 |
| 20260505230502 | 88 | 187 | 5.0 | 10.0 | 0.00 | 0.00 | 0.00 | 69 | 1003.9 |
| 20260505230002 | 88 | 193 | 4.0 | 10.0 | 0.00 | 0.00 | 0.00 | 69 | 1003.9 |
| 20260505225501 | 88 | 186 | 4.0 | 11.0 | 0.00 | 0.00 | 0.00 | 69 | 1003.7 |
| 20260505225002 | 88 | 173 | 4.0 | 11.0 | 0.00 | 0.00 | 0.00 | 69 | 1003.9 |
| 20260505224502 | 88 | 172 | 4.0 | 12.0 | 0.00 | 0.00 | 0.00 | 69 | 1003.9 |
| 20260505224002 | 89 | 171 | 5.0 | 12.0 | 0.00 | 0.00 | 0.00 | 69 | 1003.7 |
| 20260505222502 | 89 | 190 | 4.0 | 13.0 | 0.00 | 0.00 | 0.00 | 69 | 1003.8 |
| 20260505222002 | 89 | 184 | 4.0 | 13.0 | 0.00 | 0.00 | 0.00 | 69 | 1003.8 |
| 20260505221502 | 89 | 183 | 5.0 | 13.0 | 0.00 | 0.00 | 0.00 | 68 | 1003.8 |
| 20260505221002 | 89 | 178 | 5.0 | 12.0 | 0.00 | 0.00 | 0.00 | 68 | 1003.6 |
| 20260505220502 | 89 | 183 | 4.0 | 11.0 | 0.00 | 0.00 | 0.00 | 68 | 1003.6 |
| 20260505220002 | 90 | 195 | 4.0 | 12.0 | 0.00 | 0.00 | 0.00 | 67 | 1003.7 |
| 20260505215502 | 89 | 191 | 5.0 | 12.0 | 0.00 | 0.00 | 0.00 | 67 | 1003.7 |
| 20260505215001 | 90 | 192 | 4.0 | 10.0 | 0.00 | 0.00 | 0.00 | 66 | 1003.7 |
| 20260505214502 | 90 | 195 | 4.0 | 10.0 | 0.00 | 0.00 | 0.00 | 67 | 1003.7 |
| 20260505214002 | 89 | 190 | 4.0 | 10.0 | 0.00 | 0.00 | 0.00 | 68 | 1003.8 |
| 20260505213501 | 89 | 179 | 4.0 | 11.0 | 0.00 | 0.00 | 0.00 | 67 | 1003.8 |
| 20260505213002 | 89 | 178 | 5.0 | 11.0 | 0.00 | 0.00 | 0.00 | 67 | 1003.8 |
| 20260505212002 | 89 | 196 | 5.0 | 13.0 | 0.00 | 0.00 | 0.00 | 67 | 1004.0 |
| 20260505211502 | 89 | 190 | 4.0 | 11.0 | 0.00 | 0.00 | 0.00 | 66 | 1004.0 |
| 20260505210002 | 90 | 181 | 4.0 | 9.0 | 0.00 | 0.00 | 0.00 | 66 | 1004.1 |
| 20260505205502 | 90 | 195 | 4.0 | 9.0 | 0.00 | 0.00 | 0.00 | 66 | 1004.2 |
| 20260505205003 | 90 | 203 | 4.0 | 9.0 | 0.00 | 0.00 | 0.00 | 64 | 1004.3 |
| 20260505204502 | 90 | 198 | 4.0 | 9.0 | 0.00 | 0.00 | 0.00 | 65 | 1004.4 |
| 20260505204001 | 89 | 204 | 4.0 | 9.0 | 0.00 | 0.00 | 0.00 | 67 | 1004.4 |
| 20260505203502 | 89 | 207 | 3.0 | 9.0 | 0.00 | 0.00 | 0.00 | 66 | 1004.4 |
| 20260505203002 | 88 | 202 | 4.0 | 13.0 | 0.00 | 0.00 | 0.00 | 69 | 1004.5 |
| 20260505202502 | 88 | 197 | 5.0 | 13.0 | 0.00 | 0.00 | 0.00 | 67 | 1004.5 |
| 20260505201501 | 88 | 199 | 5.0 | 13.0 | 0.00 | 0.00 | 0.00 | 66 | 1004.6 |
| 20260505201002 | 88 | 194 | 4.0 | 13.0 | 0.00 | 0.00 | 0.00 | 67 | 1004.6 |
| 20260505200502 | 88 | 189 | 5.0 | 10.0 | 0.00 | 0.00 | 0.00 | 68 | 1004.6 |
| 20260505200002 | 88 | 189 | 5.0 | 13.0 | 0.00 | 0.00 | 0.00 | 69 | 1004.7 |
| 20260505195502 | 88 | 199 | 4.0 | 13.0 | 0.00 | 0.00 | 0.00 | 67 | 1004.7 |
| 20260505195001 | 88 | 206 | 4.0 | 10.0 | 0.00 | 0.00 | 0.00 | 68 | 1004.6 |
| 20260505194502 | 87 | 193 | 5.0 | 16.0 | 0.00 | 0.00 | 0.00 | 70 | 1004.7 |
| 20260505194002 | 87 | 198 | 5.0 | 16.0 | 0.00 | 0.00 | 0.00 | 69 | 1004.7 |
| 20260505193502 | 86 | 198 | 5.0 | 15.0 | 0.00 | 0.00 | 0.00 | 70 | 1004.7 |
| 20260505193002 | 86 | 190 | 6.0 | 15.0 | 0.00 | 0.00 | 0.00 | 70 | 1004.8 |
| 20260505191502 | 85 | 194 | 6.0 | 16.0 | 0.00 | 0.00 | 0.00 | 70 | 1004.9 |
| 20260505191002 | 85 | 192 | 6.0 | 16.0 | 0.00 | 0.00 | 0.00 | 71 | 1004.9 |
| 20260505190502 | 85 | 194 | 5.0 | 14.0 | 0.00 | 0.00 | 0.00 | 71 | 1004.9 |
| 20260505190003 | 85 | 191 | 4.0 | 16.0 | 0.00 | 0.00 | 0.00 | 73 | 1005.0 |
| 20260505185502 | 84 | 191 | 5.0 | 16.0 | 0.00 | 0.00 | 0.00 | 72 | 1004.9 |
| 20260505185002 | 84 | 194 | 5.0 | 14.0 | 0.00 | 0.00 | 0.00 | 72 | 1005.1 |
| 20260505184502 | 84 | 198 | 5.0 | 12.0 | 0.00 | 0.00 | 0.00 | 73 | 1005.1 |
| 20260505184002 | 84 | 198 | 5.0 | 12.0 | 0.00 | 0.00 | 0.00 | 72 | 1005.1 |
| 20260505183503 | 84 | 194 | 5.0 | 12.0 | 0.00 | 0.00 | 0.00 | 72 | 1005.2 |
| 20260505182502 | 84 | 186 | 4.0 | 10.0 | 0.00 | 0.00 | 0.00 | 73 | 1005.1 |
| 20260505182003 | 84 | 189 | 4.0 | 11.0 | 0.00 | 0.00 | 0.00 | 73 | 1005.2 |
| 20260505181502 | 83 | 189 | 5.0 | 13.0 | 0.00 | 0.00 | 0.00 | 73 | 1005.2 |
| 20260505181002 | 84 | 187 | 5.0 | 14.0 | 0.00 | 0.00 | 0.00 | 72 | 1005.2 |
| 20260505180002 | 84 | 198 | 5.0 | 17.0 | 0.00 | 0.00 | 0.00 | 70 | 1005.3 |
| 20260505175502 | 85 | 193 | 4.0 | 8.0 | 0.00 | 0.00 | 0.00 | 70 | 1005.3 |
| 20260505175002 | 85 | 191 | 4.0 | 13.0 | 0.00 | 0.00 | 0.00 | 71 | 1005.3 |
| 20260505174502 | 84 | 192 | 5.0 | 13.0 | 0.00 | 0.00 | 0.00 | 72 | 1005.4 |
| 20260505174002 | 84 | 198 | 5.0 | 13.0 | 0.00 | 0.00 | 0.00 | 72 | 1005.3 |
| 20260505173503 | 84 | 203 | 5.0 | 13.0 | 0.00 | 0.00 | 0.00 | 72 | 1005.2 |
| 20260505173003 | 83 | 200 | 4.0 | 12.0 | 0.00 | 0.00 | 0.00 | 72 | 1005.3 |
| 20260505172502 | 84 | 198 | 3.0 | 13.0 | 0.00 | 0.00 | 0.00 | 72 | 1005.2 |
| 20260505171003 | 82 | 195 | 5.0 | 12.0 | 0.00 | 0.00 | 0.00 | 73 | 1005.4 |
| 20260505170502 | 82 | 200 | 5.0 | 17.0 | 0.00 | 0.00 | 0.00 | 75 | 1005.5 |
| 20260505170002 | 81 | 201 | 5.0 | 17.0 | 0.00 | 0.00 | 0.00 | 75 | 1005.5 |
| 20260505165002 | 81 | 199 | 6.0 | 13.0 | 0.00 | 0.00 | 0.00 | 75 | 1005.4 |
| 20260505164503 | 81 | 197 | 5.0 | 12.0 | 0.00 | 0.00 | 0.00 | 75 | 1005.5 |
| 20260505164002 | 81 | 213 | 5.0 | 11.0 | 0.00 | 0.00 | 0.00 | 75 | 1005.8 |
| 20260505163502 | 81 | 208 | 5.0 | 12.0 | 0.00 | 0.00 | 0.00 | 75 | 1005.5 |
| 20260505163002 | 81 | 193 | 5.0 | 13.0 | 0.00 | 0.00 | 0.00 | 77 | 1005.3 |
| 20260505162503 | 80 | 187 | 6.0 | 15.0 | 0.00 | 0.00 | 0.00 | 76 | 1005.3 |
| 20260505161503 | 79 | 193 | 7.0 | 16.0 | 0.00 | 0.00 | 0.00 | 77 | 1005.2 |
| 20260505161002 | 79 | 190 | 6.0 | 16.0 | 0.00 | 0.00 | 0.00 | 77 | 1005.2 |
| 20260505160502 | 79 | 192 | 6.0 | 14.0 | 0.00 | 0.00 | 0.00 | 78 | 1005.2 |
| 20260505153003 | 78 | 207 | 5.0 | 13.0 | 0.00 | 0.00 | 0.00 | 80 | 1005.4 |
| 20260505152502 | 78 | 200 | 4.0 | 11.0 | 0.00 | 0.00 | 0.00 | 80 | 1005.5 |
| 20260505152003 | 77 | 194 | 6.0 | 17.0 | 0.00 | 0.00 | 0.00 | 81 | 1005.5 |
| 20260505151503 | 76 | 197 | 7.0 | 17.0 | 0.00 | 0.00 | 0.00 | 82 | 1005.4 |
| 20260505151002 | 76 | 194 | 7.0 | 15.0 | 0.00 | 0.00 | 0.00 | 82 | 1005.3 |
| 20260505150503 | 75 | 191 | 6.0 | 15.0 | 0.00 | 0.00 | 0.00 | 82 | 1005.3 |
| 20260505125003 | 72 | 193 | 4.0 | 14.0 | 0.00 | 0.00 | 0.00 | 87 | 1005.1 |
| 20260505124503 | 72 | 199 | 3.0 | 9.0 | 0.00 | 0.00 | 0.00 | 87 | 1004.9 |
| 20260505124003 | 72 | 196 | 4.0 | 11.0 | 0.00 | 0.00 | 0.00 | 87 | 1004.7 |
| 20260505123503 | 72 | 191 | 4.0 | 11.0 | 0.00 | 0.00 | 0.00 | 87 | 1004.7 |
| 20260505123003 | 72 | 195 | 4.0 | 11.0 | 0.00 | 0.00 | 0.00 | 87 | 1004.6 |
| 20260505122502 | 72 | 199 | 4.0 | 9.0 | 0.00 | 0.00 | 0.00 | 87 | 1004.7 |
| 20260505122003 | 72 | 198 | 4.0 | 11.0 | 0.00 | 0.00 | 0.00 | 87 | 1004.6 |
| 20260505121503 | 72 | 192 | 5.0 | 13.0 | 0.00 | 0.00 | 0.00 | 87 | 1004.6 |
| 20260505121003 | 72 | 190 | 5.0 | 13.0 | 0.00 | 0.00 | 0.00 | 87 | 1004.6 |
| 20260505120503 | 72 | 192 | 4.0 | 12.0 | 0.00 | 0.00 | 0.00 | 87 | 1004.5 |
| 20260505120004 | 72 | 186 | 5.0 | 12.0 | 0.00 | 0.00 | 0.00 | 87 | 1004.4 |
| 20260505115503 | 72 | 194 | 5.0 | 12.0 | 0.00 | 0.00 | 0.00 | 87 | 1004.4 |
| 20260505115002 | 72 | 200 | 6.0 | 13.0 | 0.00 | 0.00 | 0.00 | 87 | 1004.4 |
| 20260505114503 | 71 | 194 | 5.0 | 13.0 | 0.00 | 0.00 | 0.00 | 87 | 1004.4 |
| 20260505114003 | 71 | 188 | 5.0 | 9.0 | 0.00 | 0.00 | 0.00 | 87 | 1004.3 |
| 20260505112503 | 72 | 183 | 5.0 | 13.0 | 0.00 | 0.00 | 0.00 | 87 | 1004.3 |
| 20260505112003 | 72 | 186 | 5.0 | 12.0 | 0.00 | 0.00 | 0.00 | 87 | 1004.2 |
| 20260505111503 | 71 | 193 | 5.0 | 12.0 | 0.00 | 0.00 | 0.00 | 87 | 1004.3 |
| 20260505111003 | 71 | 198 | 5.0 | 13.0 | 0.00 | 0.00 | 0.00 | 87 | 1004.3 |
| 20260505102003 | 72 | 187 | 5.0 | 14.0 | 0.00 | 0.00 | 0.00 | 86 | 1004.4 |
| 20260505100503 | 72 | 187 | 6.0 | 12.0 | 0.00 | 0.00 | 0.00 | 86 | 1004.4 |
| 20260505100003 | 72 | 183 | 5.0 | 13.0 | 0.00 | 0.00 | 0.00 | 86 | 1004.5 |
| 20260505094503 | 72 | 185 | 6.0 | 13.0 | 0.00 | 0.00 | 0.00 | 86 | 1004.7 |
| 20260505094003 | 72 | 191 | 6.0 | 14.0 | 0.00 | 0.00 | 0.00 | 86 | 1004.7 |
| 20260505093502 | 72 | 192 | 5.0 | 14.0 | 0.00 | 0.00 | 0.00 | 86 | 1004.7 |
| 20260505093004 | 72 | 190 | 5.0 | 14.0 | 0.00 | 0.00 | 0.00 | 86 | 1004.8 |
| 20260505092503 | 72 | 188 | 5.0 | 14.0 | 0.00 | 0.00 | 0.00 | 86 | 1004.8 |
| 20260505092003 | 72 | 192 | 6.0 | 13.0 | 0.00 | 0.00 | 0.00 | 86 | 1004.7 |
| 20260505091503 | 72 | 194 | 7.0 | 17.0 | 0.00 | 0.00 | 0.00 | 86 | 1004.7 |
| 20260505091003 | 72 | 191 | 6.0 | 17.0 | 0.00 | 0.00 | 0.00 | 86 | 1004.8 |
| 20260505090503 | 72 | 195 | 7.0 | 16.0 | 0.00 | 0.00 | 0.00 | 86 | 1004.7 |
| 20260505090003 | 72 | 197 | 7.0 | 15.0 | 0.00 | 0.00 | 0.00 | 86 | 1004.6 |
| 20260505085503 | 72 | 194 | 6.0 | 15.0 | 0.00 | 0.00 | 0.00 | 86 | 1004.6 |
| 20260505085003 | 72 | 194 | 7.0 | 15.0 | 0.00 | 0.00 | 0.00 | 86 | 1004.5 |
| 20260505084503 | 72 | 196 | 6.0 | 15.0 | 0.00 | 0.00 | 0.00 | 86 | 1004.6 |
| 20260505084003 | 72 | 195 | 7.0 | 17.0 | 0.00 | 0.00 | 0.00 | 86 | 1004.6 |
| 20260505083503 | 72 | 193 | 7.0 | 18.0 | 0.00 | 0.00 | 0.00 | 86 | 1004.6 |
| 20260505083003 | 72 | 198 | 6.0 | 18.0 | 0.00 | 0.00 | 0.00 | 86 | 1004.7 |